#timestamp,LO_Frequency,Hit,StdDev 
1617285615.9,286047002.8,N
1617285635.7,286047002.4,N
1617285655.6,286047002.7,N
1617285675.4,286046999.8,N
1617285695.2,286047002.5,N
1617285715.1,286047002.4,N
1617285716.0,286047002.4,N
1617285735.8,286047002.4,N
1617285755.6,286047002.4,N
1617285775.5,286046999.7,N
1617285795.3,286047002.3,N
1617285815.2,286047002.4,N
1617285835.9,286047002.8,N
1617285855.7,286046999.7,N
1617285875.6,286046999.7,N
1617285895.4,286047002.5,N
1617285915.3,286046999.7,N
1617285935.1,286047002.3,N
1617285936.0,286047002.3,N
1617285955.8,286047002.2,N
1617285975.7,286047000.1,N
1617285995.5,286047000.2,N
1617286015.3,286047000.0,N
1617286035.2,286047002.7,N
1617286055.0,286046999.9,N
1617286055.9,286046999.9,N
1617286075.8,286046999.7,N
1617286095.6,286047000.1,N
1617286115.4,286046999.8,N
1617286135.3,286047000.1,N
1617286155.1,286046999.7,N
1617286175.9,286046999.8,N
1617286195.7,286046999.8,N
1617286215.5,286047002.3,N
1617286235.4,286047002.4,N
1617286255.2,286047002.8,N
1617286275.0,286047002.7,N
1617286275.9,286047002.7,N
1617286295.8,286047001.9,N
1617286315.6,286047002.3,N
1617286335.5,286047002.3,N
1617286355.3,286047002.3,N
1617286375.1,286047002.6,N
1617286395.9,286047002.4,N
1617286415.7,286047002.7,N
1617286435.5,286047002.7,N
1617286455.4,286047002.6,N
1617286475.2,286047002.4,N
1617286495.1,286047002.4,N
1617286496.0,286047002.4,N
1617286515.8,286047002.4,N
1617286535.6,286047002.0,N
1617286555.5,286047001.4,N
1617286575.3,286047002.1,N
1617286595.1,286047001.3,N
1617286615.9,286047002.3,N
1617286635.7,286047001.8,N
1617286655.6,286047001.4,N
1617286675.4,286047001.7,N
1617286695.2,286047001.5,N
1617286715.1,286047001.6,N
1617286716.0,286047001.6,N
1617286735.8,286047002.1,Y
1617286755.7,286047000.7,P
1617286775.5,286047001.0,N
1617286795.3,286047000.7,N
1617286815.2,286047000.7,N
1617286835.0,286047000.7,N
1617286835.9,286047000.7,N
1617286855.7,286047000.6,N
1617286875.6,286047000.6,N
1617286895.4,286047000.4,N
1617286915.3,286047000.3,N
1617286935.1,286047000.3,N
1617286936.0,286047000.3,N
1617286955.8,286047000.5,N
1617286975.7,286047000.6,N
1617286995.5,286047000.6,N
1617287015.4,286047000.9,N
1617287035.2,286047000.7,N
1617287055.0,286047000.8,N
1617287055.9,286047000.8,N
1617287075.8,286046998.6,Y
1617287095.6,286046998.4,P
1617287115.4,286046998.4,N
1617287135.3,286046998.1,N
1617287155.1,286047000.8,N
1617287175.9,286047001.1,N
1617287195.7,286047000.5,N
1617287215.5,286047000.9,N
1617287235.4,286047001.0,N
1617287255.2,286046998.2,N
1617287275.0,286047000.8,N
1617287275.9,286047000.8,N
1617287295.8,286047001.1,N
1617287315.6,286047000.8,N
1617287335.5,286047001.1,N
1617287355.3,286047001.0,N
1617287375.1,286047000.8,N
1617287395.9,286046998.1,N
1617287415.7,286046998.1,N
1617287435.5,286046998.1,N
1617287455.4,286047001.2,N
1617287475.2,286046998.2,N
1617287495.1,286046998.5,N
1617287496.0,286046998.5,N
1617287515.8,286047001.2,N
1617287535.6,286047001.1,N
1617287555.5,286047001.0,N
1617287575.3,286047000.9,N
1617287595.1,286047001.1,N
1617287615.9,286047000.5,N
1617287635.7,286047000.9,N
1617287655.6,286046998.1,N
1617287675.4,286047000.5,N
1617287695.2,286047000.6,N
1617287715.1,286046998.1,N
1617287716.0,286046998.1,N
1617287735.8,286047000.6,N
1617287755.7,286047000.7,N
1617287775.5,286047000.9,N
1617287795.3,286047000.6,N
1617287815.2,286047000.6,N
1617287835.0,286047000.5,N
1617287835.9,286047000.5,N
1617287855.7,286047000.5,N
1617287875.6,286047000.3,N
1617287895.4,286047000.9,N
1617287915.3,286047000.4,N
1617287935.1,286047000.5,N
1617287936.0,286047000.5,N
1617287955.8,286047001.2,N
1617287975.7,286047000.6,N
1617287995.5,286047000.5,N
1617288015.4,286047000.5,N
1617288035.2,286047000.1,N
1617288055.0,286047000.2,N
1617288055.9,286047000.2,N
1617288075.8,286047000.3,N
1617288095.6,286047000.0,N
1617288115.4,286047000.4,N
1617288135.3,286046999.8,N
1617288155.1,286047002.8,Y
1617288175.9,286046999.9,P
1617288195.7,286047000.6,P
1617288215.5,286047000.6,N
1617288235.4,286047001.1,Y
1617288255.2,286047001.1,P
1617288275.0,286047001.1,N
1617288276.0,286047001.1,N
1617288295.8,286047000.7,N
1617288315.6,286046998.2,Y
1617288335.5,286047000.8,P
1617288355.3,286046998.9,P
1617288375.1,286046998.6,N
1617288395.9,286046999.1,N
1617288415.7,286046998.9,N
1617288435.6,286046998.6,N
1617288455.4,286046998.9,N
1617288475.2,286046999.4,N
1617288495.1,286046999.4,N
1617288496.0,286046999.4,N
1617288515.8,286046999.1,N
1617288535.7,286046999.2,N
1617288555.5,286046999.6,N
1617288575.3,286046998.9,N
1617288595.2,286046998.9,N
1617288615.0,286046999.0,N
1617288615.9,286046999.0,N
1617288635.8,286046998.9,N
1617288655.6,286046999.3,N
1617288675.4,286046998.8,N
1617288695.3,286046998.4,N
1617288715.1,286046998.8,N
1617288735.8,286046998.3,N
1617288755.7,286046999.3,N
1617288775.5,286046998.3,N
1617288795.4,286046998.3,N
1617288815.2,286046999.0,N
1617288835.0,286046998.4,N
1617288835.9,286046998.4,N
1617288855.8,286046998.4,N
1617288875.6,286046999.2,N
1617288895.4,286046999.0,N
1617288915.3,286046998.1,Y
1617288935.1,286047000.2,P
1617288955.9,286047000.0,N
1617288975.7,286047000.0,N
1617288995.5,286047000.3,N
1617289015.4,286047000.2,N
1617289035.2,286047000.1,N
1617289055.1,286047000.2,N
1617289056.0,286047000.2,N
1617289075.8,286047000.3,N
1617289095.6,286046999.8,N
1617289115.5,286047000.4,N
1617289135.3,286047002.8,Y
1617289155.2,286047002.2,P
1617289175.9,286047002.2,N
1617289195.7,286047002.6,N
